Voltar ao catálogo

THORAD DELTA 1 DEB

AtivoLEO
NORAD 8162·DEBRIS·🇺🇸 United States

Lançado Nov 15, 1974 de Vandenberg Space Force Base

Loading…

Próximas Passagens (próximas 24 horas)

TLE

AtualizadoSource: Space-Track

Época: Sep 14, 2026, 21:46 UTC

1 08162U 74089AC  26257.90710999  .00001538  00000-0  97256-2 0  9999
2 08162 100.8540 118.3209 0166549  18.9624 354.6476 12.51040741331054

Acompanhe THORAD DELTA 1 DEB em tempo real com AllMySat

Download on the App Store